Terminal Aerodrome Forecast
Issued by NWS

Home | Current Version | Previous Version | Text Only | Print | Product List | Glossary On
Versions: 1 2 3 4 5 6 7 8 9 10 11 12 13 14 15
000
FTUS44 KSJT 240500
TAFBBD
TAF
KBBD 240520Z 2406/2506 16013KT P6SM BKN250
     FM241100 19009KT P6SM SCT020
      TEMPO 2412/2415 BKN020
     FM241545 34015KT P6SM FEW250
     FM250000 01008KT P6SM SKC=

USA.gov is the U.S. government's official web portal to all federal, state and local government web resources and services.